Wind_Speed
9 8 4 2 4 5 3 4 2 2 3 3 10 4 11 2 2 4 6 22 22 31 27 23 21 20 20 20 20 21 22 22 21 21 21 20 18 17 16 15 15 15 16 17 17 17 16 17 16
8 3 2 2 5 3 4 4 2 3 3 2 5 2 1 4 0 1 7 19 17 29 29 25 22 21 21 21 20 19 19 20 19 19 19 19 17 16 15 15 14 13 13 14 15 16 15 15 14
4 2 3 4 3 3 3 2 3 2 1 5 1 4 1 3 4 8 6 18 22 26 28 25 23 21 20 21 20 19 18 18 17 17 17 17 16 15 14 14 14 12 12 12 13 15 14 13 12
1 5 4 4 1 5 5 7 7 6 6 3 1 2 3 0 2 7 19 23 28 30 28 27 25 23 21 20 20 19 18 17 16 16 16 16 15 14 13 12 12 11 10 11 12 14 13 13 12
4 3 4 3 3 5 6 4 14 13 5 5 4 5 3 4 1 16 20 28 35 30 28 27 23 22 21 22 21 19 18 17 16 14 14 14 14 13 12 12 11 10 9 9 11 12 12 12 12
4 3 5 1 4 6 7 6 8 7 3 5 3 5 4 3 12 21 27 30 28 30 29 28 25 23 22 21 22 21 19 18 17 16 14 13 13 12 12 11 11 10 9 9 11 13 13 12 10
5 4 3 2 4 6 4 12 7 7 7 6 6 3 3 5 23 27 28 31 29 29 31 29 28 24 23 22 22 22 20 18 17 15 14 13 12 11 10 10 9 9 8 7 9 12 13 13 11
5 4 3 2 3 5 4 10 5 5 6 4 6 5 5 7 21 22 21 25 28 28 28 29 27 25 24 24 22 22 20 19 17 15 14 13 11 10 9 9 8 8 8 7 8 11 12 12 11
4 4 1 4 3 6 4 9 6 2 7 3 6 5 5 19 19 20 18 20 21 23 23 26 28 28 28 27 26 23 22 21 19 17 15 15 14 13 11 10 9 8 8 8 7 9 10 11 11
4 4 8 6 3 4 8 2 4 3 1 3 2 4 14 19 15 17 15 17 21 23 24 25 27 29 28 28 27 26 25 25 23 21 20 18 16 14 12 12 11 10 9 9 9 9 11 12 12
3 5 5 7 8 5 4 6 1 5 4 4 9 7 10 7 7 9 12 25 31 28 29 28 28 28 29 30 29 28 28 26 25 24 22 20 19 17 15 14 13 13 12 12 12 12 14 15 15
2 7 6 8 6 5 5 3 2 8 5 6 9 17 12 8 6 9 15 22 24 30 32 31 30 27 29 30 31 30 30 28 28 27 24 23 21 19 18 17 16 15 14 14 14 14 14 15 15
4 6 4 10 11 8 5 8 5 3 3 3 8 9 14 9 9 17 20 22 23 29 33 32 31 30 31 27 29 30 30 29 30 27 24 24 22 20 19 18 16 17 16 16 16 15 14 14 15
2 4 7 5 5 5 8 5 3 5 7 9 12 14 13 13 16 18 19 19 25 27 32 34 34 34 33 30 30 31 30 28 27 26 24 24 23 22 21 20 19 20 19 18 16 15 16 16 16
4 5 7 3 1 2 8 3 6 8 0 9 13 15 14 15 16 19 31 28 33 36 32 34 36 36 36 33 29 31 28 26 26 27 24 23 23 23 22 20 19 21 21 20 18 17 16 16 16
5 4 4 5 1 2 3 7 10 9 5 8 9 9 10 11 15 31 30 32 33 32 34 38 38 40 39 35 30 29 28 25 25 24 21 22 23 22 21 21 23 20 20 21 19 17 18 15 18
5 3 4 9 4 2 3 7 13 8 10 9 8 8 10 10 11 24 30 35 37 36 37 38 39 42 42 35 28 29 25 24 25 24 19 22 25 24 19 17 17 14 13 12 12 16 17 14 16
4 3 2 4 5 3 4 8 11 3 8 11 8 7 8 9 13 25 34 32 35 36 38 41 42 41 40 29 25 26 25 26 26 25 23 24 26 27 24 17 18 17 11 9 7 6 4 4 4
3 3 5 8 8 1 5 5 9 6 2 4 7 8 9 12 18 27 32 34 39 38 39 41 44 42 42 32 29 27 29 29 30 29 26 24 27 28 25 21 13 14 17 10 11 9 9 8 5
6 5 10 9 11 6 4 5 5 4 3 3 6 8 9 8 9 12 21 29 43 47 44 42 45 45 45 41 40 32 37 35 33 30 27 25 26 25 21 21 13 11 15 13 8 6 5 3 1
7 6 6 10 2 3 2 6 4 4 3 6 3 5 5 9 12 12 14 24 36 37 45 47 48 48 47 46 35 29 30 26 31 29 26 24 22 21 19 20 15 14 11 9 5 5 4 4 3
3 7 6 3 3 4 3 4 5 3 7 4 10 13 10 11 10 12 12 17 30 46 50 45 45 47 45 44 40 41 36 24 32 31 26 24 22 19 18 17 16 15 13 11 7 5 3 3 3
9 5 3 4 3 3 4 2 6 3 7 9 11 11 11 10 10 15 14 21 32 33 45 48 43 46 45 49 45 43 37 38 36 32 32 28 25 23 20 18 17 16 15 13 10 8 7 6 5
5 1 6 4 4 1 4 2 3 3 1 3 9 11 12 13 15 17 24 24 17 27 32 41 41 44 44 49 45 43 42 39 31 32 34 32 31 28 26 22 20 19 18 17 13 11 10 9 8
6 5 3 4 4 4 3 3 5 4 4 5 6 11 11 12 14 16 19 16 14 3 25 36 38 35 42 46 48 47 45 44 40 39 39 37 35 34 33 29 27 25 22 19 16 13 11 10 9
3 4 5 5 3 4 4 4 4 1 1 3 5 7 9 14 14 15 16 21 23 9 4 13 36 35 42 45 49 47 42 42 39 39 42 42 41 41 37 35 32 29 27 24 21 17 14 11 9
2 3 2 3 2 3 3 1 3 5 13 14 14 14 17 15 13 14 14 21 24 26 13 5 6 18 39 47 44 44 42 37 38 38 42 44 44 42 40 38 36 33 30 26 23 19 15 12 9
5 1 2 3 2 4 4 4 2 8 9 13 16 15 13 15 15 12 10 16 22 26 28 20 10 10 19 23 32 41 42 37 36 36 41 40 42 42 41 40 38 35 33 29 27 22 17 13 10
3 2 4 3 4 5 2 5 5 3 2 6 9 12 14 15 14 11 9 16 17 22 29 30 31 20 8 18 26 29 35 30 28 31 37 37 38 42 44 42 40 38 36 32 29 24 18 15 11
3 4 5 4 2 2 2 5 4 5 4 5 6 6 9 12 14 12 12 18 11 14 17 19 23 25 26 11 6 12 21 28 32 33 32 33 34 33 37 39 38 38 37 32 29 24 18 16 14
Wind_Direction
329 327 284 90 63 67 272 292 262 179 193 234 133 157 190 87 171 218 47 146 157 155 169 166 164 161 155 150 147 143 140 135 133 132 132 131 130 127 125 123 121 121 123 124 125 124 121 119 114
341 355 66 87 87 69 271 270 27 220 278 84 41 54 100 103 151 359 109 158 156 161 165 167 166 164 159 156 153 150 146 139 135 135 134 134 132 128 125 125 122 120 122 124 129 130 127 126 121
352 360 77 88 98 174 227 178 74 40 132 29 45 27 12 109 128 158 285 178 169 164 165 166 167 164 160 160 157 156 153 147 141 140 139 138 135 131 130 130 129 127 128 131 134 137 133 129 123
28 17 35 80 165 249 224 174 176 165 316 326 255 295 309 200 307 201 163 164 165 166 167 170 169 166 163 166 164 165 161 155 150 148 147 144 141 139 137 135 133 133 133 137 139 143 138 134 126
47 55 60 65 257 275 258 266 187 193 175 159 183 208 248 313 329 147 162 162 162 165 166 172 172 169 168 169 171 173 169 162 156 154 152 151 148 147 145 143 143 141 137 140 146 148 148 145 138
40 93 59 157 298 258 284 266 163 169 190 161 175 150 253 303 155 164 163 165 167 164 168 171 173 175 175 175 176 177 177 172 168 164 163 162 162 160 157 155 155 155 153 151 156 161 160 155 149
112 82 186 187 256 299 273 326 120 146 152 224 170 102 277 266 175 166 163 163 169 171 171 171 175 177 180 184 181 182 181 180 179 172 172 173 173 171 171 169 166 166 163 162 164 171 173 169 163
106 91 125 259 245 273 314 360 119 152 196 103 194 191 213 233 164 162 163 163 170 176 178 173 173 178 184 187 188 186 184 186 187 183 182 184 183 184 186 186 183 179 179 178 177 175 180 179 175
128 60 183 244 200 273 330 20 307 85 133 210 195 180 204 158 167 165 155 153 170 176 182 177 175 181 185 190 187 187 190 191 190 190 193 193 195 194 197 198 200 201 196 191 191 191 191 191 189
100 124 216 215 225 268 317 25 278 83 249 340 39 350 162 152 163 153 155 135 166 181 187 184 183 183 184 186 189 187 190 194 195 195 197 202 202 202 205 208 207 210 212 210 205 202 202 203 202
152 191 218 256 241 275 269 310 208 101 340 224 172 201 173 188 158 171 166 170 184 188 188 190 191 189 185 184 190 191 194 196 200 202 202 203 203 202 204 214 216 216 215 219 214 211 209 209 208
191 233 193 270 229 213 236 235 313 138 220 265 211 184 171 186 217 206 182 188 194 193 192 195 197 194 192 192 193 194 198 201 204 206 205 207 208 205 207 213 216 220 222 227 227 226 223 221 218
204 260 268 263 279 218 265 245 190 261 190 103 124 179 195 191 224 228 213 193 195 195 198 199 197 200 199 200 202 203 203 206 209 209 209 213 213 212 209 214 218 225 228 234 236 234 237 237 236
251 245 271 287 284 230 165 247 133 251 145 129 153 191 205 201 211 216 220 203 205 203 202 199 202 202 204 204 208 209 209 211 214 214 214 216 220 219 217 223 230 237 239 245 248 248 245 247 248
278 313 340 269 232 217 174 198 204 235 156 149 181 197 212 212 213 214 216 208 210 217 211 205 207 208 206 207 209 212 213 216 218 218 216 218 219 221 222 224 236 238 244 248 252 251 247 250 253
1 48 3 279 21 295 113 272 255 240 236 250 183 191 204 215 204 214 213 210 204 203 205 205 207 208 206 206 210 211 212 215 221 221 219 220 221 222 224 231 235 242 243 241 248 253 252 252 265
1 247 281 319 200 219 195 280 273 160 182 224 252 195 219 219 219 206 200 198 196 201 200 197 203 205 206 209 216 216 216 221 225 221 227 230 225 225 225 227 230 228 229 239 240 254 254 261 270
249 279 305 256 289 140 285 266 281 255 181 216 241 259 219 223 224 218 197 201 199 199 202 201 203 207 208 208 209 216 224 233 226 222 227 231 232 230 233 240 221 209 197 205 224 231 217 223 248
269 263 271 279 271 157 229 257 297 300 115 305 278 270 247 212 225 223 212 201 199 202 202 201 198 207 205 197 202 211 221 224 218 218 224 232 237 236 240 223 215 215 213 215 219 221 233 233 228
240 241 271 277 265 177 303 307 306 6 323 257 263 252 264 293 303 281 237 206 200 202 202 199 201 202 203 200 199 198 207 208 209 215 221 227 236 239 232 214 232 207 207 214 203 207 180 160 205
245 196 234 224 344 331 17 340 351 328 1 315 285 250 270 258 266 268 252 225 205 200 202 198 200 199 199 199 195 194 196 202 209 214 215 226 231 237 229 226 215 209 207 205 204 176 139 110 90
275 225 246 247 105 242 51 274 295 313 312 347 358 22 358 348 325 266 261 239 208 207 204 200 197 197 195 191 191 190 184 186 200 207 210 220 226 228 226 217 213 208 205 198 191 193 188 169 170
241 311 254 230 175 91 341 70 266 265 13 14 16 4 354 343 334 349 315 263 230 206 199 200 196 194 193 193 193 191 189 197 199 205 214 215 219 219 214 208 205 198 200 202 205 208 213 218 217
252 307 37 49 94 17 232 134 304 36 311 8 7 358 357 355 355 5 4 348 252 207 193 191 191 193 195 199 200 197 196 199 200 205 213 215 214 215 211 208 210 205 208 207 207 211 219 227 224
57 58 339 330 356 219 280 19 249 69 35 51 351 346 344 356 359 11 11 357 6 241 192 184 184 187 196 200 201 203 202 201 204 208 207 210 212 215 210 208 210 212 213 213 212 215 223 229 235
49 137 156 224 197 237 332 245 191 221 341 342 359 348 358 2 359 10 17 8 1 39 317 203 183 192 197 201 206 209 206 204 206 209 206 208 210 210 208 209 211 214 215 215 215 214 213 220 230
292 57 201 133 31 87 238 338 237 2 15 18 18 18 4 354 355 356 8 22 10 16 31 281 264 217 203 206 209 212 211 205 203 207 206 207 211 213 213 213 215 216 220 219 217 218 214 219 226
92 241 21 10 243 233 261 230 198 15 5 6 7 0 358 352 350 354 357 22 34 34 37 39 10 285 244 231 220 215 217 218 216 212 210 211 216 219 217 217 218 221 222 221 217 217 214 219 223
359 12 62 119 136 201 215 251 95 86 58 22 355 353 351 354 345 331 337 360 43 45 41 42 37 28 344 234 225 225 224 221 216 216 214 221 224 223 222 219 220 224 224 217 213 214 214 219 220
114 107 97 115 251 257 194 260 142 105 44 23 352 341 344 349 345 333 324 327 356 58 53 43 29 19 18 17 289 234 229 229 235 230 227 213 215 217 222 220 219 216 215 211 212 213 214 218 217
Height
772 771 771 773 799 807 809 794 773 774 771 760 755 766 770 767 777 795 762 762 767 766 780 785 790 793 795 798 801 803 804 805 808 810 810 813 814 814 815 817 817 818 818 819 819 819 820 820 820
770 769 769 780 812 821 807 790 779 775 768 760 759 763 768 777 766 764 765 765 768 770 778 785 790 794 796 799 802 806 809 808 810 811 812 813 816 816 817 818 819 820 821 822 822 822 822 821 822
769 768 777 799 819 810 810 785 778 774 766 770 770 765 766 771 764 765 762 765 768 774 779 786 791 795 798 802 804 807 810 810 811 812 814 814 815 817 818 819 820 820 822 822 823 824 824 824 824
768 770 784 807 809 794 788 781 773 775 769 767 769 777 766 764 765 763 760 762 767 772 779 785 789 792 797 803 805 809 810 811 812 813 814 814 816 817 818 820 821 821 823 824 824 825 825 826 827
770 781 808 814 806 790 777 765 766 772 771 770 769 775 770 765 764 762 766 764 765 773 779 785 791 793 796 799 804 810 811 811 812 815 816 816 816 817 819 819 820 822 823 825 825 826 826 827 828
784 790 816 819 807 787 774 763 760 770 766 768 770 771 769 764 764 763 762 766 772 774 778 784 789 793 797 800 803 807 811 811 811 812 815 816 817 817 818 819 819 821 823 824 825 825 827 828 829
788 803 812 807 800 788 769 757 762 766 768 769 760 773 767 761 760 762 763 764 771 776 778 779 784 790 795 801 803 806 809 811 814 813 814 816 818 819 819 819 820 821 823 824 825 825 826 827 828
783 797 803 802 800 788 765 761 754 760 766 754 756 773 770 751 758 764 767 767 770 775 779 779 783 789 796 800 803 805 807 811 814 814 816 817 818 819 820 821 822 822 822 824 825 825 827 828 829
775 809 819 798 791 779 768 772 754 748 756 756 755 752 747 752 758 763 766 767 773 777 781 782 783 788 792 798 800 802 806 809 811 813 815 816 816 816 818 820 822 822 822 824 825 827 828 829 829
786 811 803 785 774 774 771 769 763 759 761 761 757 750 751 755 759 759 763 767 772 773 780 785 786 787 791 795 799 799 803 805 807 809 812 815 816 816 818 819 820 821 822 823 824 825 827 828 830
783 797 784 774 772 771 770 766 759 763 770 760 759 754 753 757 757 758 761 761 763 770 778 781 785 788 790 791 796 797 801 803 806 807 808 812 813 814 815 818 819 819 820 821 822 823 824 826 828
782 775 773 767 762 767 768 759 757 762 761 751 751 746 751 758 758 758 760 764 767 770 773 778 783 786 790 791 792 795 799 801 804 806 807 809 811 811 812 815 817 818 818 820 822 824 824 826 827
777 771 766 762 762 763 758 763 758 755 751 747 753 755 755 759 761 760 759 764 767 769 771 776 778 784 788 789 792 795 797 800 802 804 805 806 808 808 811 814 815 817 817 819 820 822 825 826 827
767 766 767 760 758 757 764 761 754 751 750 753 757 758 757 757 756 760 760 762 764 766 768 771 774 780 785 786 790 794 797 798 801 802 803 804 806 807 810 812 813 815 816 819 821 822 824 825 826
765 772 767 760 755 755 757 767 765 749 747 758 757 756 757 757 759 757 754 756 759 761 764 769 774 779 783 786 789 793 796 797 799 800 801 802 803 804 809 809 811 813 815 817 819 820 821 822 824
775 777 789 765 756 753 754 785 758 749 751 751 757 755 755 754 753 751 751 752 756 759 760 765 771 776 780 784 788 790 793 794 796 798 799 799 801 804 805 807 811 812 813 814 816 818 820 820 822
791 796 787 778 756 757 760 774 748 747 750 754 751 755 751 752 755 750 749 749 752 753 757 763 770 772 776 782 785 787 789 792 794 796 796 798 800 802 804 808 811 810 811 812 814 816 817 818 820
800 791 785 786 764 762 769 773 755 746 750 750 750 750 753 748 744 740 742 743 747 750 753 757 763 769 774 778 782 785 787 790 792 793 795 796 798 800 803 806 808 809 810 811 813 815 815 817 818
782 785 791 779 762 763 770 772 760 751 747 751 752 751 749 745 734 734 736 739 742 745 748 750 756 762 767 773 777 781 784 786 789 791 793 795 797 798 801 803 805 805 807 810 812 813 814 816 817
782 789 790 777 763 765 763 765 757 750 747 747 749 750 748 746 740 735 734 736 736 737 741 745 748 753 760 766 768 773 777 782 786 789 792 793 794 795 797 800 802 804 806 808 810 811 813 815 815
779 785 781 779 759 760 762 774 766 753 749 746 743 744 745 745 741 733 729 729 732 734 736 737 741 745 753 759 766 771 777 781 784 786 788 789 791 793 795 798 800 802 804 805 807 809 810 812 814
783 761 762 763 775 792 767 807 780 763 759 754 756 754 752 747 741 735 727 723 724 722 725 731 736 741 748 754 761 764 766 773 775 777 782 785 788 790 792 794 797 799 801 803 806 808 810 811 813
768 751 758 758 772 783 782 799 784 764 765 770 765 758 754 748 743 730 722 714 711 715 716 723 731 735 743 749 754 758 762 765 767 773 778 782 785 788 790 792 795 797 799 802 805 807 809 810 812
748 755 770 782 788 805 783 785 792 777 775 772 765 760 753 745 738 728 721 712 709 710 715 719 726 731 737 743 749 753 756 761 765 770 775 779 782 784 787 790 792 794 797 799 802 805 807 809 810
761 781 806 805 810 809 782 789 790 780 773 768 768 763 756 748 741 732 726 721 715 715 715 713 721 729 734 739 744 747 750 754 758 763 769 773 777 780 782 786 789 791 794 797 800 802 803 805 806
768 778 806 810 815 808 783 794 789 776 771 766 764 764 757 752 746 738 732 728 722 716 724 724 719 726 731 736 739 743 747 749 753 756 761 766 771 774 777 780 783 787 791 795 798 800 801 802 804
769 789 776 796 800 812 798 783 782 777 773 769 768 765 761 756 751 745 738 734 731 726 725 729 732 733 730 732 736 740 743 746 749 752 756 760 765 769 773 776 779 783 787 791 794 796 797 799 802
769 771 793 808 806 810 798 784 783 791 787 778 773 772 768 762 754 749 746 742 740 737 734 731 734 736 736 738 737 736 740 744 748 751 753 757 760 764 768 772 775 779 783 787 790 793 794 796 799
785 789 794 802 810 816 814 800 785 794 793 790 784 778 773 767 762 755 750 748 742 739 738 739 738 737 738 736 736 738 739 744 743 746 750 752 755 759 762 766 770 774 778 781 786 789 792 793 796
778 795 807 824 810 821 818 809 789 790 789 788 788 785 779 772 766 760 753 751 748 739 737 738 740 741 742 736 737 736 736 740 742 741 744 747 749 751 755 760 764 768 772 777 783 786 788 791 793